Weather History for Key West NAF, FL

Change the Weather History Date:

Sunday, July 29, 2012

  Actual Average Record
Temperature  
Mean Temperature 85 °F -  
Max Temperature 91 °F 89 °F 93 °F (1990)
Min Temperature 81 °F 80 °F 73 °F (1983)
Cooling Degree Days 20    
Growing Degree Days 35 (Base 50)    
Moisture  
Dew Point 73 °F    
Average Humidity 67    
Maximum Humidity 74    
Minimum Humidity 59    
Precipitation  
Precipitation 0.00 in - - ()
Sea Level Pressure  
Sea Level Pressure 30.05 in    
Wind  
Wind Speed 6 mph (SE)    
Max Wind Speed 8 mph    
Max Gust Speed -    
Visibility 10 miles    
Events      
Averages and records for this station are not official NWS values.
T = Trace of Precipitation, MM = Missing Value Source: NWS Daily Summary

Daily Weather History Graph

Daily Weather History Graph

Search for Another Location

Airport:

Trip Planner

Search our weather history database for the weather conditions in past years. The results will help you decide how hot, cold, wet, or windy it might be!

Date:

Astronomy

Jul. 29, 2012 Rise Set
Actual Time 6:53 AM EDT 8:12 PM EDT
Civil Twilight 6:29 AM EDT 8:36 PM EDT
Nautical Twilight 6:00 AM EDT 9:05 PM EDT
Astronomical Twilight 5:29 AM EDT 9:36 PM EDT
Moon 5:10 PM EDT (7/29) 3:12 AM EDT (7/29)
Length of Visible Light 14h 07m
Length of Day
13h 18m
Waxing Gibbous, 85% of the Moon is Illuminated
Jul 29
Waxing Gibbous
Aug 1
Full
Aug 9
Last Quarter
Aug 17
New
Aug 24
First Quarter

Hourly Weather History & Observations

Time (EDT) Temp. Heat Index Dew Point Humidity Pressure Visibility Wind Dir Wind Speed Gust Speed Precip Events Conditions
12:53 AM 81.0 °F 85.2 °F 72.0 °F 74% 30.06 in 10.0 mi ESE 6.9 mph - N/A   Clear
1:53 AM 82.0 °F 86.7 °F 72.0 °F 71% 30.04 in 10.0 mi ESE 8.1 mph - N/A   Clear
2:53 AM 82.0 °F 86.3 °F 71.1 °F 69% 30.04 in 10.0 mi ESE 5.8 mph - N/A   Clear
3:53 AM 82.0 °F 86.7 °F 72.0 °F 71% 30.02 in 10.0 mi SE 8.1 mph - N/A   Clear
4:53 AM 82.0 °F 86.3 °F 71.1 °F 69% 30.02 in 10.0 mi ESE 5.8 mph - N/A   Clear
5:53 AM 82.9 °F 88.0 °F 72.0 °F 69% 30.03 in 10.0 mi SE 6.9 mph - N/A   Scattered Clouds
6:02 AM 82.4 °F 87.2 °F 71.6 °F 70% 30.04 in 10.0 mi SE 6.9 mph - N/A   Partly Cloudy
6:53 AM 82.0 °F 86.7 °F 72.0 °F 71% 30.04 in 10.0 mi SE 3.5 mph - N/A   Partly Cloudy
7:53 AM 82.9 °F 88.8 °F 73.0 °F 72% 30.06 in 10.0 mi SSE 4.6 mph - N/A   Scattered Clouds
8:53 AM 86.0 °F 93.8 °F 73.9 °F 67% 30.07 in 10.0 mi East 4.6 mph - N/A   Scattered Clouds
9:53 AM 87.1 °F 96.3 °F 75.0 °F 67% 30.09 in 10.0 mi East 4.6 mph - N/A   Scattered Clouds
10:53 AM 87.1 °F 96.3 °F 75.0 °F 67% 30.09 in 10.0 mi ESE 8.1 mph - N/A   Scattered Clouds
11:53 AM 89.1 °F 97.0 °F 73.0 °F 59% 30.10 in 10.0 mi South 6.9 mph - N/A   Scattered Clouds
12:53 PM 89.1 °F 97.0 °F 73.0 °F 59% 30.09 in 10.0 mi SE 8.1 mph - N/A   Partly Cloudy
1:53 PM 89.1 °F 98.0 °F 73.9 °F 61% 30.08 in 10.0 mi SE 8.1 mph - N/A   Partly Cloudy
2:53 PM 89.1 °F 98.0 °F 73.9 °F 61% 30.05 in 10.0 mi SE 5.8 mph - N/A   Partly Cloudy
3:53 PM 89.1 °F 98.0 °F 73.9 °F 61% 30.04 in 10.0 mi SSE 4.6 mph - N/A   Partly Cloudy
4:53 PM 89.1 °F 97.0 °F 73.0 °F 59% 30.02 in 10.0 mi ESE 6.9 mph - N/A   Scattered Clouds
5:53 PM 89.1 °F 98.0 °F 73.9 °F 61% 30.01 in 10.0 mi SE 6.9 mph - N/A   Partly Cloudy
6:53 PM 86.0 °F 92.2 °F 72.0 °F 63% 30.02 in 10.0 mi SE 6.9 mph - N/A   Clear
7:53 PM 84.9 °F 90.7 °F 72.0 °F 65% 30.02 in 10.0 mi ESE 4.6 mph - N/A   Partly Cloudy
8:53 PM 82.9 °F 88.0 °F 72.0 °F 69% 30.03 in 10.0 mi ESE 4.6 mph - N/A   Partly Cloudy
9:53 PM 82.9 °F 88.8 °F 73.0 °F 72% 30.05 in 10.0 mi ESE 5.8 mph - N/A   Partly Cloudy
10:53 PM 82.9 °F 88.8 °F 73.0 °F 72% 30.07 in 10.0 mi ESE 4.6 mph - N/A   Clear
11:53 PM 82.9 °F 88.8 °F 73.0 °F 72% 30.08 in 10.0 mi ESE 3.5 mph - N/A   Partly Cloudy